Regional Weather Roundup
Issued by NWS

Home | Current Version | Previous Version | Graphics & Text | Print | Product List | Glossary Off
Versions: 1 2 3 4 5 6 7 8 9 10 11 12 13 14 15 16 17 18 19 20 21 22 23 24 25 26 27 28 29 30 31 32 33 34 35 36 37 38 39 40 41 42 43 44 45 46 47 48 49 50

000
ASUS43 KIND 181109
RWRIN

WEATHER ROUNDUP FOR INDIANA
NATIONAL WEATHER SERVICE INDIANAPOLIS IN
700 AM EDT THU SEP 18 2014

NOTE: "FAIR" INDICATES FEW OR NO CLOUDS BELOW 12,000 FEET WITH NO
SIGNIFICANT WEATHER AND/OR OBSTRUCTIONS TO VISIBILITY.

* - STATION DOES NOT REPORT WEATHER SUCH AS PRECIPITATION OR FOG.

+ - STATION NOT QUALITY CONTROLLED BY THE NATIONAL WEATHER SERVICE.
    USE DATA WITH CAUTION...ESPECIALLY DEWPOINT AND RELATIVE
    HUMIDITY OBSERVATIONS.

INZ001>003-010>013-019-020-181200-
NORTHWEST INDIANA

CITY           SKY/WX    TMP DP  RH WIND       PRES   REMARKS
GARY /AIRPORT/ CLEAR     45  45 100 CALM      30.08R FOG
KNOX *+        CLEAR     42  40  95 CALM      30.07R
LA PORTE +     CLEAR     42  42 100 CALM      30.08S
MICHIGAN CITY+ CLEAR     43  43 100 CALM      30.08S
MONTICELLO +   CLEAR     45  44  99 CALM      30.05S
RENSSELAER +   CLEAR     45  45 100 CALM      30.07R FOG
VALPARAISO     CLEAR     44  43  96 CALM      30.08R FOG

$$

LMZ046-743>745-181200-
SOUTHERN LAKE MICHIGAN

STATION/POSITION TIME  TEMP WIND        PRES
                       AIR  DIR/SP/G
                 (UTC) (F)  (DEG/KT/KT) (MB)
MICHIGAN CITY    1100   54   90/  7/ 10   N/A

$$

INZ004-005-014>016-021>024-181200-
NORTH CENTRAL INDIANA

CITY           SKY/WX    TMP DP  RH WIND       PRES   REMARKS
ELKHART        MOCLDY    43  41  93 CALM      30.09
GOSHEN         FOG       42  40  92 CALM      30.08S VSB 1
LOGANSPORT +   CLEAR     45  41  87 CALM      30.07R
PERU/GRISSOM   CLEAR     46  46 100 CALM      30.06R
ROCHESTER +    CLEAR     45  45 100 CALM      30.07S FOG
SOUTH BEND     CLEAR     43  40  89 N3        30.09R
WARSAW +       CLEAR     41  41 100 CALM      30.07S FOG

$$

INZ006>009-017-018-025>027-181200-
NORTHEAST INDIANA

CITY           SKY/WX    TMP DP  RH WIND       PRES   REMARKS
ANGOLA *+      CLEAR     45  43  93 CALM      30.08S
AUBURN +       CLEAR     45  43  93 CALM      30.08R
FORT WAYNE     CLEAR     45  43  93 N3        30.08R
HUNTINGTON +   CLEAR     42  42  99 CALM      30.06R FOG

$$

INZ028-029-035-036-043>045-051>053-181200-
WEST CENTRAL INDIANA

CITY           SKY/WX    TMP DP  RH WIND       PRES   REMARKS
GREENCASTLE +  CLEAR     50  48  93 CALM      30.06R
LAFAYETTE      CLEAR     46  46 100 NE3       30.06R FOG
TERRE HAUTE    CLEAR     49  47  93 CALM      30.05R

$$

INZ030>032-037>040-046>048-054>057-064-065-181200-
CENTRAL INDIANA

CITY           SKY/WX    TMP DP  RH WIND       PRES   REMARKS
CP ATTERBURY + CLEAR     45  45 100 CALM      30.05S FOG
COLUMBUS       CLEAR     46  46 100 MISG      30.05
FRANKFORT +    CLEAR    N/A N/A N/A CALM      30.06S
GREENWOOD *+   CLEAR     48  48 100 CALM      30.05R
INDIANAPOLIS   CLEAR     51  48  89 NE6       30.04R
-EAGLE CREEK   CLEAR     51  46  83 CALM      30.04S
KOKOMO *+        N/A     43  39  87 CALM      30.06S VSB 3/4
MARION +       FOG       41  40  97 CALM      30.06S VSB 1/2
MT COMFORT *+  CLOUDY    43 N/A N/A CALM      30.05S VSB 1/4
SHELBYVILLE    CLEAR     48  45  89 E3        30.04S FOG
ZIONSVILLE +   CLEAR     46  44  91 CALM      30.06S FOG

$$

INZ033-034-041-042-049-050-058-059-181200-
EAST CENTRAL INDIANA

CITY           SKY/WX    TMP DP  RH WIND       PRES   REMARKS
MUNCIE         MOCLDY    44  41  89 CALM      30.05S FOG

$$

INZ060-061-067>069-081>083-085>088-181200-
SOUTHWEST INDIANA

CITY           SKY/WX    TMP DP  RH WIND       PRES   REMARKS
EVANSVILLE     CLOUDY    59  54  83 NE7       30.02R
WASHINGTON +   CLOUDY    50  50 100 CALM      30.04R FOG

$$

INZ062-063-066-070>080-084-089>092-181200-
SOUTH CENTRAL AND SOUTHEAST INDIANA

CITY           SKY/WX    TMP DP  RH WIND       PRES   REMARKS
BLOOMINGTON    CLEAR     48  46  93 CALM      30.05R
SEYMOUR +      FOG       50  48  93 CALM      30.05  VSB 1/2

$$



USA.gov is the U.S. government's official web portal to all federal, state and local government web resources and services.